Simultaneous Nadir Overpasses (SNOs) Predictions

Prediction of SNOs between GOES-16 and METOP-C Satellite Orbit:

Table of predicted SNOs for the next 14.0 days since TLE Epoch: 4/4/2021
Index Date Time (GOES-16) GOES-16 Lat,Lon METOP-C Lat,Lon Distance(km) Time Diff (sec)
1 04/04/2021 14:32:29 0.04, -75.21 -0.06, -74.81 45.74 80
2 04/06/2021 02:51:29 -0.04, -75.18 -1.00, -79.40 481.48 80
3 04/07/2021 02:28:10 -0.03, -75.18 0.16, -74.42 87.55 80
4 04/08/2021 14:47:02 0.03, -75.22 0.86, -78.98 428.80 80
5 04/09/2021 14:29:03 0.03, -75.22 -0.25, -73.99 140.97 80
6 04/11/2021 02:48:03 -0.03, -75.21 -0.76, -78.59 384.48 80
7 04/12/2021 02:24:44 -0.03, -75.22 0.34, -73.59 185.58 80
8 04/13/2021 14:43:36 0.03, -75.26 0.67, -78.15 329.46 80
9 04/14/2021 14:25:37 0.03, -75.27 -0.44, -73.16 240.98 80
10 04/16/2021 02:44:37 -0.03, -75.27 -0.57, -77.76 283.70 80
11 04/17/2021 02:21:17 -0.03, -75.28 0.53, -72.76 286.66 80
